Regional Weather Roundup
Issued by NWS

Home | Current Version | Previous Version | Text Only | Print | Product List | Glossary On
Versions: 1 2 3 4 5 6 7 8 9 10 11 12 13 14 15 16 17 18 19 20 21 22 23 24 25 26 27 28 29 30 31 32 33 34 35 36 37 38 39 40 41 42 43 44 45 46 47 48 49 50
000
ASUS44 KLIX 270911
RWRLA
LOUISIANA WEATHER ROUNDUP
NATIONAL WEATHER SERVICE NEW ORLEANS LA
400 AM CDT WED JUL 27 2016

NOTE: "FAIR" INDICATES FEW OR NO CLOUDS BELOW 12,000 FEET WITH NO
      SIGNIFICANT WEATHER AND/OR OBSTRUCTIONS TO VISIBILITY.
      SKY/WX - SKY CONDITION AND SIGNIFICANT WEATHER.
      TMP - AIR TEMPERATURE.    DP   - DEWPOINT TEMPERATURE.
      RH  - RELATIVE HUMIDITY.  PRES - PRESSURE.
      HX  - HEAT INDEX.         WCI  - WIND CHILL INDEX.

*  THESE STATIONS ARE NOT NWS OR FAA STATIONS AND ARE NOT UNDER
   NWS QUALITY CONTROL.

LAZ040-048-061>063-065-066-069-271000-
SOUTHEAST LOUISIANA

CITY           SKY/WX    TMP DP  RH WIND       PRES   REMARKS
N.O. AUDUBON     N/A     79  76  90 MISG        N/A
N.O. INTL ARPT CLOUDY    80  75  84 W9        29.97R
N.O. LAKEFRONT CLOUDY    79  73  82 S8        29.96S
N.O. DOWNTOWN* FAIR      79  75  87 S6        29.97S
RESERVE*       DRIZZLE   77  74  91 W8        29.97S
SLIDELL        CLOUDY    79  74  84 S6        29.96S
BATON ROUGE    CLOUDY    78  73  84 S8        29.95R
BOOTHVILLE     PTCLDY    81  76  84 S7        29.98S
BELLE CHASSE   PTCLDY    78  75  90 S5        29.96S
BOGALUSA*      CLOUDY    77  72  85 CALM      29.98R
GALLIANO*      MOSUNNY   76  75  96 S3        29.97S
NEW ROADS*     CLOUDY    75  74  96 S6        29.94S
GONZALES*      RAIN      74  74  97 SW6       29.96S
HAMMOND*       CLOUDY    77  72  83 S7        29.95S
HOUMA*         CLOUDY    77  76  96 CALM      29.96S
PORT FOURCHON* SUNNY     82  75  78 S9        29.97S

$$

LAZ041-044-053-054-271000-
SOUTHWEST LOUISIANA

CITY           SKY/WX    TMP DP  RH WIND       PRES   REMARKS
LAKE CHARLES   CLEAR     79  75  87 CALM      29.90F
LAFAYETTE      CLOUDY    77  74  90 SW7       29.94S
PATTERSON      LGT RAIN  75  74  96 N3        29.96S
SALT POINT       N/A     76  74  93 W16G28    29.95R
NEW IBERIA     CLOUDY    76  73  91 SW6       29.95S
CHENAULT AIRPK CLEAR     78  74  90 CALM      29.91F

$$

LAZ027-028-271000-
CENTRAL LOUISIANA

CITY           SKY/WX    TMP DP  RH WIND       PRES   REMARKS
FORT POLK      MOCLDY    76  75  96 SW6       29.92S
ALEXANDRIA INT CLOUDY    74  74 100 CALM      29.90S
ALEXANDRIA     CLOUDY    74  74 100 SW3       29.92S

$$

LAZ001-002-271000-
NORTHWEST LOUISIANA

CITY           SKY/WX    TMP DP  RH WIND       PRES   REMARKS
SHREVEPORT     PTCLDY    76  74  93 CALM      29.91S
BARKSDALE AFB  CLEAR     74  74 100 CALM      29.91S
DTN SHREVEPORT PTCLDY    76  73  91 SE3       29.91S

$$

LAZ014-016-271000-
NORTHEAST LOUISIANA

CITY           SKY/WX    TMP DP  RH WIND       PRES   REMARKS
MONROE         CLOUDY    76  75  97 CALM      29.93S
TALLULAH       CLOUDY    77  74  90 S5        29.92S

$$




USA.gov is the U.S. government's official web portal to all federal, state and local government web resources and services.